Location: Kęty
(49.8820°N, 19.2300°E)
Time: 10:49:30
(UTC+02:00)

ISS - Visible Passes

Search period start: 22 September 2018 00:00
Search period end: 02 October 2018 00:00
Orbit: 403 x 408 km, 51.6° (Epoch: 22 September)

Date Brightness Start Highest point End Pass type
(mag) Time Alt. Az. Time Alt. Az. Time Alt. Az.
22 Sep -1.9 20:27:28 10° SSW 20:28:50 19° S 20:28:50 19° S visible
23 Sep -2.1 19:36:20 10° S 19:38:36 17° SE 19:39:35 15° ESE visible
23 Sep -1.3 21:11:24 10° WSW 21:12:17 17° WSW 21:12:17 17° WSW visible
24 Sep -3.6 20:19:37 10° SW 20:22:49 48° SSE 20:22:49 48° SSE visible
25 Sep -2.9 19:28:01 10° SSW 19:31:00 32° SSE 19:33:12 15° E visible
25 Sep -2.1 21:04:02 10° W 21:05:53 31° W 21:05:53 31° W visible
26 Sep -3.9 20:12:05 10° WSW 20:15:23 80° SSE 20:16:08 51° E visible
26 Sep -0.4 21:48:44 10° W 21:48:48 10° W 21:48:48 10° W visible
27 Sep -3.6 19:20:14 10° SW 19:23:28 56° SSE 19:26:17 13° ENE visible
27 Sep -2.4 20:56:43 10° W 20:58:57 38° WNW 20:58:57 38° WNW visible
28 Sep -3.7 20:04:41 10° W 20:08:00 73° N 20:09:02 40° ENE visible
28 Sep -0.5 21:41:22 10° WNW 21:41:42 12° WNW 21:41:42 12° WNW visible
29 Sep -3.8 19:12:41 10° WSW 19:16:00 89° SSE 19:19:03 12° ENE visible
29 Sep -2.5 20:49:21 10° W 20:51:43 41° WNW 20:51:43 41° WNW visible
30 Sep -3.5 19:57:18 10° W 20:00:36 62° N 20:01:42 36° ENE visible
30 Sep -0.5 21:33:55 10° WNW 21:34:21 13° WNW 21:34:21 13° WNW visible
01 Oct -3.6 19:05:14 10° W 19:08:32 68° N 19:11:39 11° ENE visible
01 Oct -2.7 20:41:54 10° WNW 20:44:18 44° WNW 20:44:18 44° WNW visible
